"Pseudo-MPEC" for ST26C14

Created 2026 Mar 11 15:35:23 UT using Find_Orb

Click here for an explanation of pseudo-MPECs

 
 Astrometry: 
     ST26C14* C2026 03 09.31603712 43 51.762+16 00 51.21   ~398Z 19.55GVNEOCPU68
     ST26C14  C2026 03 09.31937812 43 49.181+16 04 04.29   ~398Z 19.55GVNEOCPU68
     ST26C14  C2026 03 09.33030512 43 40.793+16 14 24.05   ~398Z 19.62GVNEOCPU74
     ST26C14  C2026 03 09.33324512 43 38.519+16 17 08.56   ~398Z 19.62GVNEOCPU74
     ST26C14  C2026 03 09.35714812 43 03.120+16 40 13.48   ~399K 19.8 GWNEOCPH01
     ST26C14  C2026 03 09.36162412 42 59.651+16 44 05.96   ~399K 19.2 GWNEOCPH01
     ST26C14  C2026 03 09.36989512 42 53.269+16 51 11.37   ~399K 19.6 GWNEOCPH01
     ST26C14  C2026 03 09.37932312 42 46.124+16 59 06.33   ~399K 20.0 GWNEOCPH01
     ST26C14  C2026 03 09.45806812 42 09.134+17 58 40.29   ~39FK 20.23GVNEOCPU74
     ST26C14 1C2026 03 09.45976412 41 55.763+18 01 10.06   ~39BZ 20.73GVNEOCPI52
     ST26C14 1C2026 03 09.46067412 41 55.237+18 01 49.08   ~39BZ 20.48GVNEOCPI52
     ST26C14 1C2026 03 09.46112412 41 54.971+18 02 07.30   ~39BZ 20.31GVNEOCPI52
     ST26C14  C2026 03 09.46134212 42 07.138+18 00 59.28   ~39FK 20.23GVNEOCPU74
     ST26C14 KB2026 03 10.02675812 41 28.17 +22 28 21.7    ~3A15 20.9 GVNEOCPI93
     ST26C14 KB2026 03 10.03026812 41 26.76 +22 29 29.7    ~3A15 20.9 GVNEOCPI93
     ST26C14 KB2026 03 10.03378012 41 25.45 +22 30 36.4    ~3A15 21.0 GVNEOCPI93
     ST26C14 KC2026 03 10.20645312 41 28.21 +23 19 57.6    ~3A5Z 21.4 GVNEOCPH21
     ST26C14 KC2026 03 10.20942512 41 27.25 +23 20 45.7    ~3A5Z 21.3 GVNEOCPH21
     ST26C14 KC2026 03 10.21241012 41 26.25 +23 21 34.2    ~3A5Z 21.2 GVNEOCPH21

Station data:
(H01) Magdalena Ridge Observatory, Socorro  (N33.984833 W107.189333)  US/New
   Mexico.  Observers W. H. Ryan, E. V. Ryan. Measurer W. H. Ryan. 2.4-m
   f/8.9 reflector + CCD.
(H21) Astronomical Research Observatory, Westfield  (N39.483054 W87.968270)
   US/Illinois.  Observer R. Holmes. Measurers S. Foglia, L. Buzzi, T.
   Linder, R. Holmes. 0.40-m f/5.32 astrograph + CCD.
(I52) Steward Observatory, Mt. Lemmon Station  (N32.442570 W110.788920)
   US/Arizona. Measurers T. Beuden, V. F. Carvajal, D. Fay, J. B. Fazekas, D.
   C. Fuls, A. R. Gibbs, A. D. Grauer, H. Gröller, J. K. Hogan, R. A.
   Kowalski, S. M. Larson, G. J. Leonard, D. Rankin, R. L. Seaman, F. C.
   Shelly, K. W. Wierzchoś. 1.0-m prime focus + CCD.
(I93) St Pardon de Conques  (N44.558670 W0.202960)  France.  Observers F.
   Losse, W. D'Anna. Measurer F. Losse. 0.40-m f/3.7 reflector + CCD.
(U68) JPL SynTrack Robotic Telescope, Auberry  (N37.070387 W119.412990)
   US/California.  Observers N. Saini, C. Zhai, R. Trahan, M. Zhan, M. Shao.
   0.28-m f/2.2 Schmidt + CCD.
(U74) JPL SynTrack Robotic Telescope 2, Auberry  (N37.070341 W119.412800)
   US/California.  Observers N. Saini, C. Zhai, R. Trahan, M. Zhan, M. Shao.
   0.36-m f/2.2 Schmidt.

Orbital elements:  ST26C14
   Perihelion 2026 Jan 15.276786 +/- 0.00511 TT =  6:38:34.2 (JD 2461055.776786)
Epoch 2026 Mar 10.0 TT = JDT 2461109.5   Earth MOID: 0.0012   Ma: 0.0898
M  37.126052715 +/- 0.010           (J2000 ecliptic)             AutoNEOCP
n   0.691061643 +/- 0.000137        Peri.  289.874424 +/- 0.0017
a   1.267043494 +/- 0.000168        Node   167.849004 +/- 0.00007
e   0.34878238 +/- 0.000113         Incl.   10.126487 +/- 0.0027
P   1.426/520.928d         H 30.11  G  0.15   U  6.8
q 0.825121044 +/- 3.35e-5    Q 1.708965944 +/- 0.000369
From 19 observations 2026 Mar. 9-10 (21.5 hr); mean residual 0".30
Residuals in arcseconds: 
260309 U68  .30+  .24-    260309 H01  .07+  .38+    260310 I93  .35-  .41+    
260309 U68  .01-  .15+    260309 U74  .06-  .07-    260310 I93  .09+  .05-    
260309 U74  .06-  .50-    260309 I52  .23-  .61-    260310 H21  .05+  .06+    
260309 U74  .31-  .38-    260309 I52  .02+  .25+    260310 H21  .04+  .20-    
260309 H01  .28-  .85+    260309 I52  .04+  .38-    260310 H21  .37-  .05-    
260309 H01  .04+  .05+    260309 U74  .30+  .09+    
260309 H01  .02+  .46+    260310 I93  .59+  .08-    

Ephemerides (geocentric):
Date (UTC) HH   RA             Dec           delta  r     elong  mag " sig PA
---- --------  ------------   ------------  ------ ------ -----  --- --------
2026 03 11 16  12 39 50.173   +26 50 18.38  .01979 1.0108 150.9 22.9 .415 168
2026 03 11 17  12 39 48.887   +26 53 31.07  .02004 1.0110 150.8 22.9 .422 168
2026 03 11 18  12 39 47.624   +26 56 38.90  .02029 1.0112 150.8 22.9 .428 168
2026 03 11 19  12 39 46.382   +26 59 42.07  .02054 1.0115 150.8 23.0 .435 168
2026 03 11 20  12 39 45.161   +27 02 40.73  .02079 1.0117 150.8 23.0 .441 168
2026 03 11 21  12 39 43.960   +27 05 35.05  .02105 1.0119 150.7 23.0 .447 168
2026 03 11 22  12 39 42.778   +27 08 25.17  .02130 1.0121 150.7 23.0 .453 169
2026 03 11 23  12 39 41.615   +27 11 11.25  .02155 1.0124 150.7 23.1 .459 169
2026 03 12 00  12 39 40.470   +27 13 53.41  .02180 1.0126 150.7 23.1 .465 169
2026 03 12 01  12 39 39.342   +27 16 31.80  .02205 1.0128 150.6 23.1 .471 169
2026 03 12 02  12 39 38.231   +27 19 06.53  .02230 1.0131 150.6 23.1 .477 169
2026 03 12 03  12 39 37.136   +27 21 37.73  .02255 1.0133 150.6 23.2 .483 169
2026 03 12 04  12 39 36.056   +27 24 05.51  .02280 1.0135 150.6 23.2 .488 169
2026 03 12 05  12 39 34.992   +27 26 29.98  .02305 1.0137 150.5 23.2 .494 169
2026 03 12 06  12 39 33.942   +27 28 51.25  .02330 1.0140 150.5 23.2 .499 169
2026 03 12 07  12 39 32.905   +27 31 09.41  .02355 1.0142 150.5 23.3 .504 169
2026 03 12 08  12 39 31.883   +27 33 24.57  .02380 1.0144 150.5 23.3 .509 169
2026 03 12 09  12 39 30.873   +27 35 36.82  .02406 1.0146 150.5 23.3 .515 169
2026 03 12 10  12 39 29.876   +27 37 46.24  .02431 1.0149 150.4 23.3 .520 169
2026 03 12 11  12 39 28.891   +27 39 52.91  .02456 1.0151 150.4 23.4 .525 169
2026 03 12 12  12 39 27.918   +27 41 56.94  .02481 1.0153 150.4 23.4 .529 169
2026 03 12 13  12 39 26.956   +27 43 58.38  .02506 1.0156 150.4 23.4 .534 169
2026 03 12 14  12 39 26.005   +27 45 57.31  .02531 1.0158 150.4 23.4 .539 169
2026 03 12 15  12 39 25.065   +27 47 53.81  .02556 1.0160 150.4 23.5 .544 169
2026 03 12 16  12 39 24.135   +27 49 47.95  .02581 1.0162 150.3 23.5 .548 169
2026 03 12 17  12 39 23.215   +27 51 39.79  .02606 1.0165 150.3 23.5 .553 169
2026 03 12 18  12 39 22.305   +27 53 29.41  .02632 1.0167 150.3 23.5 .557 169
2026 03 12 19  12 39 21.404   +27 55 16.85  .02657 1.0169 150.3 23.5 .562 169
2026 03 12 20  12 39 20.512   +27 57 02.18  .02682 1.0171 150.3 23.6 .566 169
2026 03 12 21  12 39 19.628   +27 58 45.45  .02707 1.0174 150.3 23.6 .570 169
2026 03 12 22  12 39 18.754   +28 00 26.73  .02732 1.0176 150.2 23.6 .575 169
2026 03 12 23  12 39 17.887   +28 02 06.07  .02757 1.0178 150.2 23.6 .579 169
2026 03 13 00  12 39 17.029   +28 03 43.51  .02782 1.0181 150.2 23.6 .583 169
2026 03 13 01  12 39 16.178   +28 05 19.10  .02807 1.0183 150.2 23.7 .587 169
2026 03 13 02  12 39 15.335   +28 06 52.90  .02833 1.0185 150.2 23.7 .591 169
2026 03 13 03  12 39 14.499   +28 08 24.95  .02858 1.0187 150.2 23.7 .595 169
2026 03 13 04  12 39 13.670   +28 09 55.30  .02883 1.0190 150.2 23.7 .599 169
2026 03 13 05  12 39 12.848   +28 11 23.98  .02908 1.0192 150.2 23.7 .603 169
2026 03 13 06  12 39 12.032   +28 12 51.04  .02933 1.0194 150.1 23.8 .607 169
2026 03 13 07  12 39 11.223   +28 14 16.52  .02958 1.0197 150.1 23.8 .610 169
2026 03 13 08  12 39 10.420   +28 15 40.45  .02983 1.0199 150.1 23.8 .614 169
2026 03 13 09  12 39 09.623   +28 17 02.89  .03009 1.0201 150.1 23.8 .618 169
2026 03 13 10  12 39 08.832   +28 18 23.85  .03034 1.0203 150.1 23.8 .621 169
2026 03 13 11  12 39 08.047   +28 19 43.38  .03059 1.0206 150.1 23.9 .625 169
2026 03 13 12  12 39 07.267   +28 21 01.51  .03084 1.0208 150.1 23.9 .628 169
2026 03 13 13  12 39 06.493   +28 22 18.27  .03109 1.0210 150.1 23.9 .632 169
2026 03 13 14  12 39 05.724   +28 23 33.69  .03134 1.0213 150.1 23.9 .635 169
2026 03 13 15  12 39 04.960   +28 24 47.81  .03160 1.0215 150.0 23.9 .638 169